Tracking 18843 objects as of 20-November-2017
HD Live streaming from Space Station
objects crossing your sky now

NADEZHDA 3

Track NADEZHDA 3 now!
10-day predictions
NADEZHDA 3 is classified as:


NORAD ID: 21152
Int'l Code: 1991-019A
Perigee: 960.5 km
Apogee: 1,022.7 km
Inclination: 82.9 °
Period: 104.8 minutes
Semi major axis: 7362 km
RCS: 2.4675 m2 (large)
Launch date: March 12, 1991
Source: Commonwealth of Independent States (former USSR) (CIS)
Launch site: PLESETSK MISSILE AND SPACE COMPLEX (PKMTR)
aabbcc
Your satellite tracking list
Your tracking list is empty




NASA's NSSDC Master Catalog

Two Line Element Set (TLE):
1 21152U 91019A   17323.93820726 +.00000011 +00000-0 -48543-5 0  9996
2 21152 082.9256 105.8341 0042220 157.5004 320.6148 13.74225030338060
Source of the keplerian elements: AFSPC